• In Hungary
  • List of Countries
  • For 7 days
  • Water Temperature
  • Satellite Maps
  • Weather Map
  • News
  • Weather Widgets
  • user-avatar
    Login

    Hourly Weather Dlugokaty

    Today, 17 August, Friday

    Time Temperature Precipitation Wind Pressure Humidity
    00:00 +19°C° 0 mm 2 mps 753 mmHg 70%
    01:00 +18°C° 0 mm 2 mps 753 mmHg 73%
    02:00 +18°C° 0 mm 2 mps 753 mmHg 76%
    03:00 +18°C° 0 mm 2 mps 753 mmHg 80%
    04:00 +17°C° 0 mm 2 mps 753 mmHg 83%
    05:00 +18°C° 0 mm 2 mps 753 mmHg 80%
    06:00 +20°C° 0 mm 3 mps 753 mmHg 77%
    07:00 +21°C° 0 mm 3 mps 753 mmHg 76%
    08:00 +24°C° 0.1 mm 3 mps 753 mmHg 69%
    09:00 +25°C° 0.1 mm 3 mps 752 mmHg 63%
    10:00 +27°C° 0.1 mm 4 mps 752 mmHg 56%
    11:00 +27°C° 0 mm 3 mps 752 mmHg 53%
    12:00 +28°C° 0 mm 3 mps 752 mmHg 50%
    13:00 +28°C° 0 mm 3 mps 752 mmHg 48%
    14:00 +28°C° 0 mm 3 mps 752 mmHg 48%
    15:00 +28°C° 0 mm 3 mps 751 mmHg 48%
    16:00 +28°C° 0 mm 2 mps 751 mmHg 49%
    17:00 +27°C° 0 mm 2 mps 751 mmHg 54%
    18:00 +26°C° 0 mm 2 mps 751 mmHg 59%
    19:00 +24°C° 0 mm 2 mps 751 mmHg 64%
    20:00 +23°C° 0 mm 2 mps 751 mmHg 67%
    21:00 +21°C° 0 mm 2 mps 751 mmHg 71%
    22:00 +21°C° 0 mm 2 mps 751 mmHg 75%
    23:00 +20°C° 0 mm 2 mps 751 mmHg 77%

    Tomorrow, 18 August, Saturday

    Time Temperature Precipitation Wind Pressure Humidity
    00:00 +20°C° 0 mm 2 mps 752 mmHg 79%
    01:00 +19°C° 0 mm 2 mps 752 mmHg 81%
    02:00 +20°C° 0 mm 1 mps 752 mmHg 83%
    03:00 +19°C° 0 mm 1 mps 752 mmHg 85%
    04:00 +19°C° 0 mm 1 mps 752 mmHg 86%
    05:00 +20°C° 0 mm 1 mps 752 mmHg 81%
    06:00 +22°C° 0 mm 1 mps 752 mmHg 76%
    07:00 +23°C° 0 mm 1 mps 752 mmHg 72%
    08:00 +25°C° 0 mm 1 mps 752 mmHg 65%
    09:00 +26°C° 0 mm 1 mps 753 mmHg 59%
    10:00 +28°C° 0 mm 1 mps 753 mmHg 52%
    11:00 +29°C° 0 mm 1 mps 753 mmHg 49%
    12:00 +30°C° 0 mm 1 mps 752 mmHg 45%
    13:00 +28°C° 0 mm 0 mps 752 mmHg 42%
    14:00 +30°C° 0 mm 1 mps 752 mmHg 42%
    15:00 +30°C° 0 mm 1 mps 752 mmHg 42%
    16:00 +30°C° 0 mm 1 mps 752 mmHg 42%
    17:00 +28°C° 0 mm 1 mps 752 mmHg 46%
    18:00 +27°C° 0 mm 1 mps 752 mmHg 50%
    19:00 +25°C° 0 mm 1 mps 753 mmHg 55%
    20:00 +24°C° 0.3 mm 1 mps 753 mmHg 58%
    21:00 +24°C° 0.3 mm 1 mps 753 mmHg 61%
    22:00 +23°C° 0.3 mm 1 mps 753 mmHg 63%
    23:00 +22°C° 0 mm 1 mps 753 mmHg 67%

    Day after tomorrow, 19 August, Sunday

    Time Temperature Precipitation Wind Pressure Humidity
    00:00 +22°C° 0 mm 1 mps 754 mmHg 70%
    01:00 +20°C° 0 mm 2 mps 754 mmHg 73%
    02:00 +21°C° 0 mm 1 mps 754 mmHg 76%
    03:00 +20°C° 0 mm 1 mps 754 mmHg 80%
    04:00 +20°C° 0 mm 1 mps 754 mmHg 83%
    05:00 +21°C° 0 mm 1 mps 754 mmHg 80%
    06:00 +22°C° 0 mm 1 mps 754 mmHg 77%
    07:00 +23°C° 0 mm 1 mps 754 mmHg 74%
    08:00 +24°C° 0 mm 2 mps 754 mmHg 67%
    09:00 +26°C° 0 mm 2 mps 754 mmHg 61%
    10:00 +27°C° 0 mm 2 mps 754 mmHg 54%
    11:00 +28°C° 0 mm 2 mps 754 mmHg 51%
    12:00 +29°C° 0 mm 3 mps 754 mmHg 48%
    13:00 +29°C° 0 mm 3 mps 753 mmHg 45%
    14:00 +29°C° 0 mm 3 mps 753 mmHg 44%
    15:00 +29°C° 0 mm 2 mps 753 mmHg 44%
    16:00 +29°C° 0 mm 2 mps 753 mmHg 43%
    17:00 +27°C° 0 mm 2 mps 753 mmHg 47%
    18:00 +26°C° 0 mm 2 mps 753 mmHg 50%
    19:00 +24°C° 0 mm 1 mps 753 mmHg 53%
    20:00 +24°C° 0 mm 1 mps 753 mmHg 55%
    21:00 +23°C° 0 mm 1 mps 753 mmHg 56%
    22:00 +22°C° 0 mm 1 mps 753 mmHg 58%
    23:00 +21°C° 0 mm 1 mps 753 mmHg 59%

    20 August, Monday

    Time Temperature Precipitation Wind Pressure Humidity
    00:00 +21°C° 0 mm 1 mps 753 mmHg 60%
    01:00 +21°C° 0 mm 1 mps 753 mmHg 62%
    02:00 +20°C° 0 mm 1 mps 753 mmHg 64%
    03:00 +20°C° 0 mm 1 mps 753 mmHg 66%
    04:00 +20°C° 0 mm 1 mps 752 mmHg 67%
    05:00 +21°C° 0 mm 1 mps 753 mmHg 65%
    06:00 +22°C° 0 mm 1 mps 753 mmHg 63%
    07:00 +24°C° 0 mm 1 mps 753 mmHg 60%
    08:00 +25°C° 0 mm 1 mps 752 mmHg 55%
    09:00 +27°C° 0 mm 1 mps 752 mmHg 50%
    10:00 +29°C° 0 mm 1 mps 752 mmHg 45%
    11:00 +29°C° 0 mm 1 mps 752 mmHg 43%
    12:00 +30°C° 0 mm 2 mps 752 mmHg 41%
    13:00 +31°C° 0 mm 2 mps 751 mmHg 38%
    14:00 +30°C° 0 mm 2 mps 751 mmHg 39%
    15:00 +30°C° 0 mm 2 mps 751 mmHg 40%
    16:00 +30°C° 0 mm 2 mps 750 mmHg 42%
    17:00 +29°C° 0 mm 2 mps 750 mmHg 46%
    18:00 +28°C° 0 mm 1 mps 750 mmHg 50%
    19:00 +26°C° 0 mm 1 mps 750 mmHg 54%
    20:00 +26°C° 0 mm 1 mps 750 mmHg 54%
    21:00 +26°C° 0 mm 1 mps 750 mmHg 55%
    22:00 +25°C° 0 mm 1 mps 750 mmHg 56%
    23:00 +25°C° 0 mm 2 mps 750 mmHg 57%

    21 August, Tuesday

    Time Temperature Precipitation Wind Pressure Humidity
    00:00 +24°C° 0 mm 2 mps 750 mmHg 58%
    01:00 +24°C° 0 mm 2 mps 750 mmHg 60%
    02:00 +23°C° 0 mm 2 mps 750 mmHg 62%
    03:00 +23°C° 0 mm 2 mps 750 mmHg 65%
    04:00 +21°C° 0 mm 3 mps 750 mmHg 67%
    05:00 +22°C° 0 mm 3 mps 750 mmHg 67%
    06:00 +24°C° 0 mm 3 mps 750 mmHg 66%
    07:00 +23°C° 0 mm 4 mps 750 mmHg 65%
    08:00 +25°C° 0 mm 4 mps 751 mmHg 61%
    09:00 +27°C° 0 mm 5 mps 751 mmHg 57%
    10:00 +28°C° 0 mm 5 mps 751 mmHg 53%
    11:00 +28°C° 0.1 mm 5 mps 751 mmHg 52%
    12:00 +28°C° 0.1 mm 5 mps 751 mmHg 51%
    13:00 +29°C° 0.1 mm 6 mps 750 mmHg 50%
    14:00 +29°C° 0 mm 5 mps 750 mmHg 49%
    15:00 +28°C° 0 mm 5 mps 750 mmHg 49%
    16:00 +28°C° 0 mm 5 mps 750 mmHg 48%
    17:00 +27°C° 0 mm 4 mps 751 mmHg 52%
    18:00 +25°C° 0 mm 3 mps 751 mmHg 55%
    19:00 +23°C° 0 mm 2 mps 751 mmHg 59%
    20:00 +23°C° 0 mm 2 mps 751 mmHg 61%
    21:00 +21°C° 0 mm 2 mps 752 mmHg 62%
    22:00 +21°C° 0 mm 1 mps 752 mmHg 64%
    23:00 +20°C° 0 mm 1 mps 752 mmHg 65%

    22 August, Wednesday

    Time Temperature Precipitation Wind Pressure Humidity
    00:00 +20°C° 0 mm 1 mps 752 mmHg 67%
    01:00 +17°C° 0 mm 0 mps 752 mmHg 69%
    02:00 +19°C° 0 mm 1 mps 752 mmHg 69%
    03:00 +19°C° 0 mm 1 mps 752 mmHg 69%
    04:00 +19°C° 0 mm 1 mps 752 mmHg 69%
    05:00 +19°C° 0 mm 2 mps 752 mmHg 66%
    06:00 +21°C° 0 mm 2 mps 752 mmHg 63%
    07:00 +23°C° 0 mm 2 mps 752 mmHg 60%
    08:00 +25°C° 0 mm 2 mps 752 mmHg 55%
    09:00 +26°C° 0 mm 3 mps 752 mmHg 49%
    10:00 +28°C° 0 mm 3 mps 752 mmHg 44%
    11:00 +28°C° 0 mm 3 mps 752 mmHg 44%
    12:00 +29°C° 0 mm 3 mps 751 mmHg 44%
    13:00 +29°C° 0 mm 3 mps 751 mmHg 44%
    14:00 +29°C° 0 mm 3 mps 751 mmHg 45%
    15:00 +29°C° 0 mm 2 mps 751 mmHg 46%
    16:00 +29°C° 0 mm 2 mps 751 mmHg 46%
    17:00 +27°C° 0 mm 2 mps 751 mmHg 51%
    18:00 +26°C° 0 mm 2 mps 751 mmHg 56%
    19:00 +24°C° 0 mm 1 mps 751 mmHg 60%
    20:00 +24°C° 0 mm 1 mps 751 mmHg 63%
    21:00 +23°C° 0 mm 1 mps 751 mmHg 66%
    22:00 +23°C° 0 mm 1 mps 752 mmHg 68%
    23:00 +22°C° 0 mm 1 mps 752 mmHg 71%
    Show more